Location: Asheville, NC
(35.6000°N, 82.5500°W)
Time: 12:51:34
(UTC-05:00)

Vanguard 2 - Pass Details

Date: 13 December 2017
Orbit: 552 x 2940 km, 32.9° (Epoch: 16 January)

Event Time Altitude Azimuth Distance (km) Brightness Sun altitude
Rises 16:00:17 0° 245° (WSW) 4,688 13.2 12.2°
Reaches altitude 10° 16:04:07 10° 241° (WSW) 3,306 13.1 11.6°
Maximum altitude 16:11:28 51° 168° (SSE) 1,112 8.8 10.4°
Drops below altitude 10° 16:16:12 10° 93° (E) 2,147 9.4 9.7°
Sets 16:18:13 0° 87° (E) 2,920 10.0 9.3°
